sat.trackr.live / text

‹ back to catalog

STARLINK-32930

NORAD 63203 · 2025-048W

PAYLOAD ACTIVE UNKNOWN

§ Identity

Operator
Country
US
Launch date
2025-03-13
Launch site
AFETR
Launch vehicle
Mass (kg)
RCS (m²)

Purposes: comms

External: N2YO · Heavens-Above · Gunter

§ Orbital elements

Epoch: 2026-09-20T04:17:29.198688Z

Period
94.27 min
Inclination
43.0039°
Eccentricity
0.0002109
Mean motion
15.27581016 rev/d
Perigee alt
481.6 km
Apogee alt
484.5 km
Semi-major
6,861.2 km
B*
3.9465e-4
RAAN
67.2093°
Arg perigee
267.5023°
Mean anomaly
92.5588°
Rev number
8,683

§ Raw data

STARLINK-329301 63203U 25048W   26263.17881017  .00010614  00000+0  39465-3 0  99962 63203  43.0039  67.2093 0002109 267.5023  92.5588 15.27581016 86837

JSON: /api/v1/satellites/63203 · /tle

For live sub-satellite position, see the globe view (requires WebGL).

§ Visibility from observer

Set your observer location to see the next 7 days of passes ≥ 10°. The values pass through the URL so the page stays shareable.

No JS? Fill the form by hand. The geolocation button needs JavaScript.